Regional Weather Roundup
Issued by NWS Cleveland, OH

Home | Current Version | Previous Version | Graphics & Text | Print | Product List | Glossary On
Versions: 1 2 3 4 5 6 7 8 9 10 11 12 13 14 15 16 17 18 19 20 21 22 23 24 25 26 27 28 29 30 31 32 33 34 35 36 37 38 39 40 41 42 43 44 45 46 47 48 49 50
000
ASUS41 KCLE 252202
RWRCLE
OHIO REGIONAL WEATHER ROUNDUP
NATIONAL WEATHER SERVICE CLEVELAND, OH
600 PM EDT SUN JUN 25 2017

NOTE: "FAIR" INDICATES FEW OR NO CLOUDS BELOW 12,000 FEET WITH NO
SIGNIFICANT WEATHER AND/OR OBSTRUCTIONS TO VISIBILITY.

OHZ001>008-015>018-024>027-034-035-043-044-252300-
   NORTHWEST OHIO

CITY           SKY/WX    TMP DP  RH WIND       PRES   REMARKS
DEFIANCE       MOSUNNY   70  42  36 W8G18     30.06F
FINDLAY        PTSUNNY   72  44  36 W21       30.06S
TOLEDO EXPRESS MOSUNNY   70  43  37 W12       30.04S
TOLEDO EXEC    PTSUNNY   72  44  36 W13       30.04F
LIMA           PTSUNNY   69  45  41 W15G24    30.08F
$$

OHZ009>014-019>023-028>033-038-089-252300-
   NORTHEAST OHIO

CITY           SKY/WX    TMP DP  RH WIND       PRES   REMARKS
CLE-HOPKINS    MOSUNNY   73  47  39 W9G22     30.05F
CLE-LAKEFRONT  MOSUNNY   70  51  51 W13       30.03F
CUY CO. ARPT   MOSUNNY   72  50  46 W10       30.05S
LORAIN-ELYRIA  MOSUNNY   71  42  35 W13       30.05F
ASHTABULA      SUNNY     69  45  41 W14G22    30.05R
AKRON-CANTON   MOSUNNY   73  43  33 W12       30.05S
WOOSTER        SUNNY     70  44  39 W17       30.06F
MANSFIELD      MOSUNNY   70  44  39 W13       30.07F
YOUNGSTOWN     PTSUNNY   69  49  48 NW18      30.03R
$$

OHZ042-051>053-060>062-070>072-077>081-252300-
  SOUTHWEST OHIO

CITY           SKY/WX    TMP DP  RH WIND       PRES   REMARKS
CINC-COVINGTON MOSUNNY   77  48  35 NW13      30.10S
CINC-LUNKEN    MOSUNNY   75  50  41 W10G17    30.09F
HAMILTON       MOSUNNY   77  49  37 NW16      30.11S
DAYTON         MOSUNNY   73  46  38 W17       30.11F
WRIGHT-PAT AFB NOT AVBL
DAYTON GENERAL MOSUNNY   74  44  34 W14G24    30.10S
WILMINGTON     SUNNY     74  46  36 NW16G23   30.09S
$$

OHZ036-037-039>041-045>050-054>059-063>069-073>076-082>088-252300-
  CENTRAL AND SOUTHEAST OHIO

CITY           SKY/WX    TMP DP  RH WIND       PRES   REMARKS
COLUMBUS       MOSUNNY   74  47  38 W21G29    30.07F
OSU AIRPORT    MOSUNNY   72  47  40 W18G26    30.08F
BOLTON FIELD   MOSUNNY   73  48  40 NW9G22    30.09S
RICKENBACK AFB MOSUNNY   74  48  38 NW17      30.07S
NEWARK         SUNNY     76  43  30 W18G24    30.06F
MARION         MOSUNNY   71  41  33 W17G24    30.08F
LANCASTER      MOSUNNY   74  49  41 W15G21    30.07F
ZANESVILLE     MOSUNNY   75  45  34 NW13G26   30.05F
NEW PHILLY     NOT AVBL
$$




USA.gov is the U.S. government's official web portal to all federal, state and local government web resources and services.